User: anonymous
Location: Charleston
(38.3500°N, 81.6330°W)
Time: 15:52:36
(UTC-04:00)
Language:

Cosmos 1812 Rocket - Orbit

View from above orbital plane
View from above orbital plane
View from above satellite
View from above satellite

Ground track
Ground track

The orbit data is extracted from the following two-line orbital elements,

1 17296U 87003B   14261.49831976  .00000447  00000-0  52487-4 0  7391
2 17296 082.5285 242.2848 0017605 285.6370 195.6230 14.82679344494514
Epoch (UTC): 18 September 2014 11:57:34
Eccentricity: 0.0017605
inclination: 82.5285°
perigee height: 608 km
apogee height: 633 km
right ascension of ascending node: 242.2848°
argument of perigee: 285.6370°
revolutions per day: 14.82679344
mean anomaly at epoch: 195.6230°
orbit number at epoch: 49451

The dashed part of the orbit path shows where the satellite is in the earth's shadow,  

DLR